Hallock, MN

2:00 PM CDT on March 26, 2017 (GMT -0500)
Hallock Municipal

Weather History for KHCO - February, 2013

Change the Weather History Date:

Tuesday, February 19, 2013

  Actual Average Record
Temperature  
Mean Temperature -10 °F -  
Max Temperature -5 °F 19 °F 46 °F (2017)
Min Temperature -16 °F -1 °F -42 °F (1966)
Degree Days  
Heating Degree Days 76    
Moisture  
Dew Point -17 °F    
Average Humidity 74    
Maximum Humidity 84    
Minimum Humidity 65    
Precipitation  
Precipitation 0.00 in - - ()
Sea Level Pressure  
Sea Level Pressure 30.38 in    
Wind  
Wind Speed 20 mph (NNW)    
Max Wind Speed 26 mph    
Max Gust Speed 33 mph    
Visibility 6 miles    
Events      
Averages and records for this station are not official NWS values.
T = Trace of Precipitation, MM = Missing Value Source: NWS Daily Summary

Daily Weather History Graph

Daily Weather History Graph

Search for Another Location

Airport or City:

Trip Planner

Search our weather history database for the weather conditions in past years. The results will help you decide how hot, cold, wet, or windy it might be!

Date:

Astronomy

Feb. 19, 2013 Rise Set
Actual Time 7:27 AM CST 5:55 PM CST
Civil Twilight 6:55 AM CST 6:28 PM CST
Nautical Twilight 6:19 AM CST 7:04 PM CST
Astronomical Twilight 5:42 AM CST 7:41 PM CST
Moon 12:12 PM CST (2/19) 3:16 AM CST (2/19)
Length of Visible Light 11h 32m
Length of Day
10h 27m
Waxing Gibbous, 67% of the Moon is Illuminated
Feb 19
Waxing Gibbous
Feb 25
Full
Mar 4
Last Quarter
Mar 11
New
Mar 19
First Quarter

Hourly Weather History & Observations

Time (CST) Temp. Windchill Dew Point Humidity Pressure Visibility Wind Dir Wind Speed Gust Speed Precip Events Conditions
12:34 AM -7.6 °F -33.9 °F -13.0 °F 77% 30.18 in 2.5 mi NNW 24.2 mph 28.8 mph N/A   Haze
12:53 AM -7.6 °F -33.4 °F -14.8 °F 71% 30.19 in 2.0 mi NNW 23.0 mph 29.9 mph N/A   Haze
1:14 AM -9.4 °F -36.3 °F -14.8 °F 77% 30.20 in 2.0 mi NNW 24.2 mph 27.6 mph N/A   Haze
1:34 AM -9.4 °F -36.3 °F -14.8 °F 77% 30.20 in 2.0 mi NNW 24.2 mph 29.9 mph N/A   Haze
1:54 AM -9.4 °F -36.3 °F -14.8 °F 77% 30.20 in 4.0 mi NNW 24.2 mph 33.4 mph N/A   Haze
2:14 AM -9.4 °F -35.2 °F -14.8 °F 77% 30.21 in 5.0 mi North 21.9 mph - N/A   Haze
2:33 AM -9.4 °F -35.8 °F -14.8 °F 77% 30.21 in 7.0 mi NNW 23.0 mph - N/A   Clear
2:54 AM -9.4 °F -35.2 °F -16.6 °F 71% 30.22 in 4.0 mi NNW 21.9 mph 27.6 mph N/A   Haze
3:14 AM -9.4 °F -35.8 °F -16.6 °F 71% 30.23 in 4.0 mi NNW 23.0 mph 27.6 mph N/A   Clear
3:33 AM -11.2 °F -37.0 °F -16.6 °F 77% 30.23 in 5.0 mi NNW 20.7 mph - N/A   Clear
3:54 AM -11.2 °F -37.0 °F -16.6 °F 77% 30.24 in 7.0 mi NNW 20.7 mph - N/A   Clear
4:14 AM -11.2 °F -36.4 °F -16.6 °F 77% 30.25 in 10.0 mi NNW 19.6 mph - N/A   Clear
4:33 AM -11.2 °F -36.4 °F -16.6 °F 77% 30.25 in 10.0 mi NNW 19.6 mph - N/A   Clear
4:54 AM -11.2 °F -37.6 °F -16.6 °F 77% 30.27 in 5.0 mi NNW 21.9 mph - N/A   Haze
5:54 AM -13.0 °F -41.1 °F -18.4 °F 77% 30.27 in 4.0 mi NNW 24.2 mph - N/A   Haze
6:14 AM -13.0 °F -41.1 °F -18.4 °F 77% 30.28 in 7.0 mi NNW 24.2 mph 29.9 mph N/A   Clear
6:33 AM -13.0 °F -40.0 °F -18.4 °F 77% 30.29 in 7.0 mi NNW 21.9 mph - N/A   Clear
6:54 AM -14.8 °F -42.4 °F -18.4 °F 84% 30.30 in 5.0 mi NNW 21.9 mph 26.5 mph N/A   Haze
7:14 AM -14.8 °F -42.9 °F -18.4 °F 84% 30.31 in 5.0 mi NNW 23.0 mph - N/A   Haze
7:33 AM -14.8 °F -42.9 °F -20.2 °F 77% 30.32 in 5.0 mi NNW 23.0 mph - N/A   Haze
7:54 AM -14.8 °F -40.5 °F -20.2 °F 77% 30.33 in 7.0 mi NNW 18.4 mph - N/A   Clear
8:14 AM -14.8 °F -41.8 °F -20.2 °F 77% 30.34 in 7.0 mi NNW 20.7 mph - N/A   Clear
8:33 AM -14.8 °F -42.9 °F -20.2 °F 77% 30.35 in 7.0 mi NNW 23.0 mph - N/A   Clear
8:54 AM -14.8 °F -44.5 °F -20.2 °F 77% 30.35 in 4.0 mi NNW 26.5 mph - N/A   Haze
9:33 AM -13.0 °F -40.6 °F -18.4 °F 77% 30.38 in 2.5 mi NNW 23.0 mph 27.6 mph N/A   Haze
9:54 AM -13.0 °F -40.6 °F -18.4 °F 77% 30.39 in 4.0 mi NNW 23.0 mph 26.5 mph N/A   Haze
10:14 AM -13.0 °F -40.6 °F -18.4 °F 77% 30.40 in 3.0 mi NNW 23.0 mph 28.8 mph N/A   Haze
10:33 AM -11.2 °F -37.6 °F -18.4 °F 70% 30.40 in 3.0 mi NNW 21.9 mph - N/A   Haze
11:14 AM -11.2 °F -38.7 °F -18.4 °F 70% 30.42 in 2.5 mi NNW 24.2 mph 28.8 mph N/A   Haze
11:33 AM -11.2 °F -38.2 °F -18.4 °F 70% 30.42 in 3.0 mi NNW 23.0 mph 28.8 mph N/A   Haze
11:54 AM -9.4 °F -33.5 °F -16.6 °F 71% 30.43 in 4.0 mi North 18.4 mph 29.9 mph N/A   Haze
12:13 PM -9.4 °F -36.3 °F -16.6 °F 71% 30.42 in 4.0 mi NNW 24.2 mph - N/A   Haze
12:34 PM -9.4 °F -33.5 °F -16.6 °F 71% 30.42 in 4.0 mi NNW 18.4 mph 27.6 mph N/A   Haze
12:54 PM -9.4 °F -35.2 °F -16.6 °F 71% 30.41 in 4.0 mi NNW 21.9 mph 25.3 mph N/A   Haze
1:14 PM -7.6 °F -31.7 °F -14.8 °F 71% 30.41 in 4.0 mi North 19.6 mph 26.5 mph N/A   Haze
1:34 PM -7.6 °F -32.3 °F -14.8 °F 71% 30.41 in 5.0 mi NNW 20.7 mph - N/A   Haze
1:54 PM -7.6 °F -32.9 °F -14.8 °F 71% 30.42 in 4.0 mi NNW 21.9 mph - N/A   Haze
2:13 PM -7.6 °F -33.4 °F -14.8 °F 71% 30.42 in 5.0 mi NNW 23.0 mph 26.5 mph N/A   Haze
2:34 PM -7.6 °F -32.9 °F -14.8 °F 71% 30.42 in 5.0 mi NNW 21.9 mph - N/A   Haze
2:54 PM -7.6 °F -32.3 °F -13.0 °F 77% 30.42 in 4.0 mi NNW 20.7 mph 26.5 mph N/A   Haze
3:13 PM -5.8 °F -30.5 °F -13.0 °F 71% 30.42 in 5.0 mi NNW 21.9 mph 27.6 mph N/A   Haze
3:34 PM -5.8 °F -30.5 °F -13.0 °F 71% 30.42 in 7.0 mi North 21.9 mph 25.3 mph N/A   Clear
3:54 PM -5.8 °F -30.5 °F -13.0 °F 71% 30.43 in 5.0 mi North 21.9 mph 28.8 mph N/A   Haze
4:14 PM -5.8 °F -29.4 °F -13.0 °F 71% 30.43 in 10.0 mi NNW 19.6 mph 27.6 mph N/A   Clear
4:34 PM -5.8 °F -28.8 °F -14.8 °F 65% 30.44 in 10.0 mi NNW 18.4 mph 25.3 mph N/A   Clear
4:54 PM -5.8 °F -24.4 °F -13.0 °F 71% 30.45 in 10.0 mi NNW 11.5 mph - N/A   Clear
5:14 PM -7.6 °F -26.6 °F -14.8 °F 71% 30.45 in 10.0 mi NNW 11.5 mph 17.3 mph N/A   Clear
5:34 PM -7.6 °F -28.3 °F -14.8 °F 71% 30.45 in 10.0 mi NNW 13.8 mph - N/A   Clear
6:34 PM -9.4 °F -27.9 °F -16.6 °F 71% 30.47 in 10.0 mi NNW 10.4 mph - N/A   Clear
6:54 PM -9.4 °F -28.9 °F -16.6 °F 71% 30.47 in 10.0 mi NNW 11.5 mph - N/A   Clear
7:14 PM -9.4 °F -27.9 °F -16.6 °F 71% 30.48 in 10.0 mi NNW 10.4 mph - N/A   Clear
7:54 PM -9.4 °F -28.9 °F -16.6 °F 71% 30.48 in 10.0 mi North 11.5 mph - N/A   Clear
8:14 PM -11.2 °F -29.0 °F -16.6 °F 77% 30.48 in 10.0 mi North 9.2 mph - N/A   Clear
8:34 PM -11.2 °F -26.4 °F -18.4 °F 70% 30.48 in 10.0 mi North 6.9 mph - N/A   Clear
8:54 PM -11.2 °F -27.8 °F -18.4 °F 70% 30.48 in 10.0 mi NNE 8.1 mph - N/A   Clear
9:14 PM -13.0 °F -30.0 °F -18.4 °F 77% 30.48 in 10.0 mi North 8.1 mph - N/A   Clear
9:33 PM -14.8 °F -30.8 °F -20.2 °F 77% 30.49 in 10.0 mi NNW 6.9 mph - N/A   Clear
9:54 PM -14.8 °F -29.1 °F -20.2 °F 77% 30.49 in 10.0 mi North 5.8 mph - N/A   Clear
10:14 PM -14.8 °F -30.8 °F -20.2 °F 77% 30.49 in 10.0 mi NNW 6.9 mph - N/A   Clear
10:33 PM -14.8 °F -32.2 °F -20.2 °F 77% 30.50 in 10.0 mi NNW 8.1 mph - N/A   Clear
10:54 PM -14.8 °F -29.1 °F -20.2 °F 77% 30.50 in 10.0 mi NNW 5.8 mph - N/A   Clear
11:14 PM -16.6 °F -34.4 °F -20.2 °F 84% 30.50 in 10.0 mi NNW 8.1 mph - N/A   Clear
11:33 PM -16.6 °F -29.3 °F -22.0 °F 76% 30.50 in 10.0 mi North 4.6 mph - N/A   Clear
11:54 PM -16.6 °F -26.8 °F -22.0 °F 76% 30.50 in 10.0 mi North 3.5 mph - N/A   Clear